Time,TemperatureF,DewpointF,PressureIn,WindDirection,WindDirectionDegrees,WindSpeedMPH,WindSpeedGustMPH,Humidity,HourlyPrecipIn,Conditions,Clouds,dailyrainin,SoftwareType,DateUTC
2013-09-07 00:24:00,83.0,76.0,30.00,SE,125,0.0,1.0,80,0.00,,,0.04,,2013-09-07 04:24:00,
2013-09-07 00:54:00,83.0,77.0,29.99,ESE,106,0.0,0.0,81,0.00,,,0.04,,2013-09-07 04:54:00,
2013-09-07 01:23:00,82.0,76.0,29.98,ESE,105,0.0,0.0,82,0.00,,,0.04,,2013-09-07 05:23:00,
2013-09-07 01:52:00,82.0,76.0,29.97,ESE,106,0.0,0.0,83,0.00,,,0.04,,2013-09-07 05:52:00,
2013-09-07 02:22:00,82.0,77.0,29.96,ENE,77,0.0,0.0,84,0.00,,,0.04,,2013-09-07 06:22:00,
2013-09-07 02:52:00,81.0,76.0,29.95,ENE,77,0.0,0.0,85,0.00,,,0.04,,2013-09-07 06:52:00,
2013-09-07 03:12:00,81.0,76.0,29.95,ENE,76,0.0,0.0,86,0.00,,,0.04,,2013-09-07 07:12:00,
2013-09-07 03:22:00,81.0,77.0,29.94,ENE,77,0.0,0.0,87,0.00,,,0.04,,2013-09-07 07:22:00,
2013-09-07 03:52:00,81.0,77.0,29.93,ENE,76,0.0,1.0,88,0.00,,,0.04,,2013-09-07 07:52:00,
2013-09-07 04:22:00,82.0,78.0,29.93,ENE,74,0.0,1.0,88,0.00,,,0.04,,2013-09-07 08:22:00,
2013-09-07 04:53:00,81.0,77.0,29.94,NE,53,0.0,0.0,88,0.00,,,0.04,,2013-09-07 08:53:00,
2013-09-07 05:21:00,80.0,77.0,29.94,NE,53,0.0,0.0,90,0.00,,,0.04,,2013-09-07 09:21:00,
2013-09-07 05:52:00,80.0,77.0,29.94,NE,50,0.0,0.0,90,0.00,,,0.04,,2013-09-07 09:52:00,
2013-09-07 06:21:00,80.0,77.0,29.94,NE,53,0.0,1.0,91,0.00,,,0.04,,2013-09-07 10:21:00,
2013-09-07 06:51:00,80.0,77.0,29.95,NE,39,0.0,0.0,92,0.00,,,0.04,,2013-09-07 10:51:00,
2013-09-07 07:23:00,79.0,76.0,29.96,North,8,0.0,2.0,92,0.00,,,0.04,,2013-09-07 11:23:00,
2013-09-07 07:53:00,79.0,76.0,29.97,NE,54,1.0,5.0,91,0.00,,,0.04,,2013-09-07 11:53:00,
2013-09-07 08:22:00,75.0,73.0,29.99,East,91,0.0,10.0,92,0.11,,,0.15,,2013-09-07 12:22:00,
2013-09-07 08:52:00,75.0,73.0,30.00,East,84,1.0,4.0,94,0.13,,,0.17,,2013-09-07 12:52:00,
2013-09-07 09:21:00,76.0,74.0,29.99,ENE,58,0.0,3.0,95,0.02,,,0.14,,2013-09-07 13:21:00,
2013-09-07 09:52:00,76.0,74.0,30.00,ESE,104,1.0,3.0,93,0.00,,,0.14,,2013-09-07 13:52:00,
2013-09-07 10:22:00,77.0,74.0,30.01,SSE,159,0.0,2.0,92,0.00,,,0.14,,2013-09-07 14:22:00,
2013-09-07 10:52:00,78.0,75.0,30.01,SSW,193,0.0,1.0,90,0.00,,,0.14,,2013-09-07 14:52:00,
2013-09-07 11:23:00,80.0,76.0,30.00,SSE,162,0.0,1.0,87,0.00,,,0.13,,2013-09-07 15:23:00,
2013-09-07 11:54:00,82.0,76.0,30.01,West,262,0.0,2.0,82,0.00,,,0.13,,2013-09-07 15:54:00,
2013-09-07 12:24:00,83.0,77.0,30.01,SW,236,0.0,3.0,81,0.00,,,0.13,,2013-09-07 16:24:00,
2013-09-07 12:53:00,84.0,77.0,30.01,East,94,0.0,4.0,80,0.00,,,0.13,,2013-09-07 16:53:00,
2013-09-07 13:24:00,86.0,78.0,30.00,WNW,288,0.0,2.0,76,0.00,,,0.13,,2013-09-07 17:24:00,
2013-09-07 13:52:00,87.0,78.0,29.99,East,84,0.0,2.0,75,0.00,,,0.13,,2013-09-07 17:52:00,
2013-09-07 14:22:00,87.0,76.0,29.98,SSE,152,0.0,3.0,71,0.00,,,0.13,,2013-09-07 18:22:00,
2013-09-07 14:52:00,88.0,77.0,29.96,East,93,1.0,2.0,70,0.00,,,0.13,,2013-09-07 18:52:00,
2013-09-07 15:22:00,88.0,76.0,29.96,NE,37,0.0,1.0,68,0.00,,,0.13,,2013-09-07 19:22:00,
2013-09-07 15:52:00,88.0,77.0,29.95,ENE,64,1.0,4.0,70,0.00,,,0.13,,2013-09-07 19:52:00,
2013-09-07 16:22:00,88.0,78.0,29.95,East,100,0.0,3.0,72,0.00,,,0.13,,2013-09-07 20:22:00,
2013-09-07 16:53:00,89.0,77.0,29.93,East,92,0.0,3.0,69,0.00,,,0.13,,2013-09-07 20:53:00,
2013-09-07 17:22:00,86.0,76.0,29.91,North,356,2.0,8.0,73,0.00,,,0.13,,2013-09-07 21:22:00,
2013-09-07 17:54:00,84.0,76.0,29.93,NE,34,1.0,5.0,76,0.00,,,0.13,,2013-09-07 21:54:00,
2013-09-07 18:24:00,86.0,76.0,29.93,East,80,0.0,3.0,73,0.00,,,0.13,,2013-09-07 22:24:00,
2013-09-07 18:53:00,84.0,76.0,29.92,NE,46,1.0,5.0,76,0.00,,,0.13,,2013-09-07 22:53:00,
2013-09-07 19:23:00,83.0,76.0,29.93,NNE,31,0.0,3.0,79,0.00,,,0.13,,2013-09-07 23:23:00,
2013-09-07 19:53:00,81.0,75.0,29.95,ENE,61,0.0,1.0,81,0.00,,,0.13,,2013-09-07 23:53:00,
2013-09-07 20:22:00,81.0,75.0,29.95,NE,35,0.0,1.0,82,0.00,,,0.13,,2013-09-08 00:22:00,
2013-09-07 20:52:00,80.0,75.0,29.96,NE,51,0.0,1.0,84,0.00,,,0.13,,2013-09-08 00:52:00,
2013-09-07 21:11:00,79.0,74.0,29.96,NE,49,0.0,1.0,85,0.00,,,0.13,,2013-09-08 01:11:00,
2013-09-07 21:22:00,79.0,74.0,29.96,NE,49,0.0,0.0,86,0.00,,,0.13,,2013-09-08 01:22:00,
2013-09-07 21:52:00,79.0,75.0,29.97,NE,43,0.0,1.0,87,0.00,,,0.13,,2013-09-08 01:52:00,
2013-09-07 22:23:00,78.0,74.0,29.98,SW,235,0.0,1.0,87,0.00,,,0.13,,2013-09-08 02:23:00,
2013-09-07 22:52:00,77.0,74.0,29.97,NE,51,0.0,1.0,89,0.00,,,0.13,,2013-09-08 02:52:00,
2013-09-07 23:23:00,77.0,74.0,29.96,NE,39,0.0,0.0,89,0.00,,,0.13,,2013-09-08 03:23:00,
2013-09-07 23:54:00,77.0,74.0,29.96,NE,36,0.0,1.0,90,0.00,,,0.13,,2013-09-08 03:54:00,